When you browse on this site, cookies collect data to enhance your experience and personalize the content and advertising you see.
Visit our Privacy Policy to learn more. By continuing to use the site, you agree to this use of cookies and data.
  • In Spain
  • List of Countries
  • For 7 days
  • Water Temperature
  • Satellite Maps
  • Weather Map
  • Weather Widgets
  • user-avatar
    Login

    Hourly Weather Palermo

    Today, 19 June, Wednesday

    Time Temperature Precipitation Wind Pressure Humidity
    00:00 +20°C° 0 mm 0 mps 758 mmHg 81%
    01:00 +20°C° 0 mm 0 mps 758 mmHg 79%
    02:00 +19°C° 0 mm 0 mps 758 mmHg 80%
    03:00 +19°C° 0 mm 0 mps 758 mmHg 80%
    04:00 +19°C° 0 mm 0 mps 758 mmHg 81%
    05:00 +22°C° 0 mm 1 mps 758 mmHg 75%
    06:00 +24°C° 0 mm 1 mps 758 mmHg 68%
    07:00 +25°C° 0 mm 1 mps 758 mmHg 62%
    08:00 +27°C° 0 mm 1 mps 758 mmHg 54%
    09:00 +29°C° 0 mm 1 mps 759 mmHg 47%
    10:00 +30°C° 0 mm 2 mps 759 mmHg 39%
    11:00 +31°C° 0 mm 2 mps 759 mmHg 38%
    12:00 +31°C° 0 mm 2 mps 759 mmHg 37%
    13:00 +32°C° 0 mm 2 mps 759 mmHg 36%
    14:00 +31°C° 0 mm 2 mps 758 mmHg 34%
    15:00 +31°C° 0 mm 2 mps 758 mmHg 33%
    16:00 +31°C° 0 mm 2 mps 758 mmHg 32%
    17:00 +29°C° 0 mm 1 mps 758 mmHg 39%
    18:00 +27°C° 0 mm 1 mps 758 mmHg 47%
    19:00 +26°C° 0 mm 1 mps 758 mmHg 54%
    20:00 +25°C° 0 mm 1 mps 758 mmHg 55%
    21:00 +23°C° 0 mm 1 mps 758 mmHg 55%
    22:00 +22°C° 0 mm 1 mps 758 mmHg 55%
    23:00 +22°C° 0 mm 1 mps 758 mmHg 51%

    Tomorrow, 20 June, Thursday

    Time Temperature Precipitation Wind Pressure Humidity
    00:00 +22°C° 0 mm 1 mps 758 mmHg 47%
    01:00 +20°C° 0 mm 0 mps 758 mmHg 42%
    02:00 +21°C° 0 mm 1 mps 758 mmHg 41%
    03:00 +21°C° 0 mm 1 mps 758 mmHg 40%
    04:00 +21°C° 0 mm 1 mps 758 mmHg 39%
    05:00 +23°C° 0 mm 1 mps 758 mmHg 36%
    06:00 +25°C° 0 mm 1 mps 758 mmHg 34%
    07:00 +27°C° 0 mm 1 mps 759 mmHg 31%
    08:00 +28°C° 0 mm 2 mps 759 mmHg 28%
    09:00 +30°C° 0 mm 2 mps 759 mmHg 24%
    10:00 +33°C° 0 mm 3 mps 759 mmHg 21%
    11:00 +34°C° 0 mm 3 mps 759 mmHg 20%
    12:00 +35°C° 0 mm 4 mps 759 mmHg 19%
    13:00 +36°C° 0 mm 4 mps 759 mmHg 18%
    14:00 +36°C° 0 mm 4 mps 759 mmHg 19%
    15:00 +36°C° 0 mm 3 mps 758 mmHg 19%
    16:00 +36°C° 0 mm 3 mps 758 mmHg 20%
    17:00 +34°C° 0 mm 3 mps 758 mmHg 25%
    18:00 +31°C° 0 mm 3 mps 758 mmHg 29%
    19:00 +29°C° 0 mm 2 mps 758 mmHg 34%
    20:00 +29°C° 0 mm 2 mps 758 mmHg 32%
    21:00 +28°C° 0 mm 2 mps 758 mmHg 31%
    22:00 +27°C° 0 mm 2 mps 759 mmHg 30%
    23:00 +27°C° 0 mm 2 mps 759 mmHg 31%

    Day after tomorrow, 21 June, Friday

    Time Temperature Precipitation Wind Pressure Humidity
    00:00 +27°C° 0 mm 2 mps 759 mmHg 32%
    01:00 +26°C° 0 mm 2 mps 759 mmHg 33%
    02:00 +26°C° 0 mm 2 mps 758 mmHg 33%
    03:00 +26°C° 0 mm 2 mps 758 mmHg 32%
    04:00 +26°C° 0 mm 2 mps 758 mmHg 32%
    05:00 +28°C° 0 mm 2 mps 758 mmHg 30%
    06:00 +30°C° 0 mm 2 mps 758 mmHg 27%
    07:00 +32°C° 0 mm 2 mps 758 mmHg 25%
    08:00 +34°C° 0 mm 2 mps 758 mmHg 24%
    09:00 +36°C° 0 mm 2 mps 759 mmHg 23%
    10:00 +37°C° 0 mm 2 mps 759 mmHg 22%
    11:00 +37°C° 0 mm 2 mps 759 mmHg 22%
    12:00 +38°C° 0 mm 2 mps 759 mmHg 23%
    13:00 +38°C° 0 mm 2 mps 759 mmHg 23%
    14:00 +38°C° 0 mm 2 mps 758 mmHg 23%
    15:00 +38°C° 0 mm 3 mps 758 mmHg 23%
    16:00 +38°C° 0 mm 3 mps 758 mmHg 24%
    17:00 +36°C° 0 mm 3 mps 758 mmHg 28%
    18:00 +34°C° 0 mm 2 mps 757 mmHg 33%
    19:00 +31°C° 0 mm 2 mps 757 mmHg 37%
    20:00 +31°C° 0 mm 2 mps 758 mmHg 36%
    21:00 +30°C° 0 mm 2 mps 758 mmHg 35%
    22:00 +30°C° 0 mm 3 mps 758 mmHg 34%
    23:00 +30°C° 0 mm 3 mps 758 mmHg 36%

    22 June, Saturday

    Time Temperature Precipitation Wind Pressure Humidity
    00:00 +29°C° 0 mm 2 mps 758 mmHg 37%
    01:00 +28°C° 0 mm 2 mps 758 mmHg 39%
    02:00 +29°C° 0 mm 2 mps 757 mmHg 38%
    03:00 +29°C° 0 mm 2 mps 757 mmHg 36%
    04:00 +30°C° 0 mm 3 mps 757 mmHg 34%
    05:00 +30°C° 0 mm 2 mps 757 mmHg 35%
    06:00 +31°C° 0 mm 1 mps 758 mmHg 36%
    07:00 +32°C° 0 mm 1 mps 758 mmHg 36%
    08:00 +35°C° 0 mm 2 mps 758 mmHg 31%
    09:00 +38°C° 0 mm 2 mps 758 mmHg 26%
    10:00 +40°C° 0 mm 3 mps 758 mmHg 22%
    11:00 +42°C° 0 mm 3 mps 758 mmHg 20%
    12:00 +43°C° 0 mm 4 mps 758 mmHg 18%
    13:00 +45°C° 0 mm 5 mps 758 mmHg 16%
    14:00 +43°C° 0 mm 4 mps 758 mmHg 19%
    15:00 +42°C° 0 mm 4 mps 758 mmHg 23%
    16:00 +40°C° 0 mm 4 mps 758 mmHg 26%
    17:00 +37°C° 0 mm 3 mps 758 mmHg 33%
    18:00 +35°C° 0 mm 3 mps 758 mmHg 39%
    19:00 +31°C° 0 mm 2 mps 758 mmHg 46%
    20:00 +31°C° 0 mm 2 mps 758 mmHg 45%
    21:00 +30°C° 0 mm 2 mps 759 mmHg 43%
    22:00 +30°C° 0 mm 2 mps 759 mmHg 42%
    23:00 +30°C° 0 mm 2 mps 759 mmHg 39%

    23 June, Sunday

    Time Temperature Precipitation Wind Pressure Humidity
    00:00 +30°C° 0 mm 1 mps 759 mmHg 36%
    01:00 +30°C° 0 mm 1 mps 759 mmHg 33%
    02:00 +30°C° 0 mm 2 mps 759 mmHg 33%
    03:00 +30°C° 0 mm 2 mps 758 mmHg 32%
    04:00 +30°C° 0 mm 3 mps 758 mmHg 31%
    05:00 +30°C° 0 mm 2 mps 758 mmHg 35%
    06:00 +30°C° 0 mm 2 mps 759 mmHg 40%
    07:00 +31°C° 0 mm 1 mps 759 mmHg 44%
    08:00 +34°C° 0 mm 2 mps 759 mmHg 37%
    09:00 +37°C° 0 mm 3 mps 759 mmHg 30%
    10:00 +40°C° 0 mm 3 mps 760 mmHg 23%
    11:00 +42°C° 0 mm 3 mps 760 mmHg 22%
    12:00 +43°C° 0 mm 3 mps 759 mmHg 21%
    13:00 +43°C° 0 mm 4 mps 759 mmHg 19%
    14:00 +43°C° 0 mm 3 mps 759 mmHg 20%
    15:00 +42°C° 0 mm 3 mps 759 mmHg 22%
    16:00 +42°C° 0 mm 3 mps 759 mmHg 23%
    17:00 +39°C° 0 mm 3 mps 759 mmHg 29%
    18:00 +36°C° 0 mm 2 mps 759 mmHg 35%
    19:00 +34°C° 0 mm 2 mps 759 mmHg 41%
    20:00 +34°C° 0 mm 2 mps 759 mmHg 38%
    21:00 +32°C° 0 mm 2 mps 759 mmHg 36%
    22:00 +32°C° 0 mm 2 mps 760 mmHg 34%
    23:00 +32°C° 0 mm 2 mps 760 mmHg 32%

    24 June, Monday

    Time Temperature Precipitation Wind Pressure Humidity
    00:00 +31°C° 0 mm 2 mps 760 mmHg 31%
    01:00 +31°C° 0 mm 1 mps 760 mmHg 30%
    02:00 +31°C° 0 mm 1 mps 759 mmHg 30%
    03:00 +30°C° 0 mm 1 mps 759 mmHg 30%
    04:00 +30°C° 0 mm 1 mps 759 mmHg 30%
    05:00 +32°C° 0 mm 1 mps 759 mmHg 29%
    06:00 +34°C° 0 mm 2 mps 760 mmHg 27%
    07:00 +36°C° 0 mm 2 mps 760 mmHg 26%
    08:00 +37°C° 0 mm 2 mps 760 mmHg 24%
    09:00 +39°C° 0 mm 3 mps 760 mmHg 23%
    10:00 +42°C° 0 mm 3 mps 760 mmHg 21%
    11:00 +42°C° 0 mm 3 mps 760 mmHg 21%
    12:00 +42°C° 0 mm 3 mps 760 mmHg 22%
    13:00 +42°C° 0 mm 3 mps 760 mmHg 22%
    14:00 +42°C° 0 mm 3 mps 760 mmHg 22%
    15:00 +40°C° 0 mm 3 mps 760 mmHg 22%
    16:00 +40°C° 0 mm 2 mps 759 mmHg 22%
    17:00 +38°C° 0 mm 2 mps 759 mmHg 26%
    18:00 +36°C° 0 mm 2 mps 759 mmHg 31%
    19:00 +33°C° 0 mm 1 mps 759 mmHg 35%
    20:00 +32°C° 0 mm 2 mps 760 mmHg 37%
    21:00 +30°C° 0 mm 2 mps 760 mmHg 39%
    22:00 +29°C° 0 mm 2 mps 760 mmHg 42%
    23:00 +28°C° 0 mm 2 mps 760 mmHg 45%
    Show more